Location: Gliwice
(50.2833°N, 18.6667°E)
Time: 20:42:20
(UTC+01:00)

ISS - Visible Passes

Search period start: 18 January 2018 00:00
Search period end: 28 January 2018 00:00
Orbit: 402 x 407 km, 51.6° (Epoch: 18 January)

Date Brightness Start Highest point End Pass type
(mag) Time Alt. Az. Time Alt. Az. Time Alt. Az.
25 Jan -1.2 18:13:30 10° SSE 18:13:31 10° SSE 18:13:31 10° SSE visible
26 Jan -1.5 18:55:13 10° SSW 18:56:18 18° SSW 18:56:18 18° SSW visible
27 Jan -2.2 18:03:25 10° SSW 18:05:58 21° SE 18:06:18 21° SE visible
27 Jan -0.4 19:38:50 10° WSW 19:38:58 11° WSW 19:38:58 11° WSW visible
